Regional Weather Roundup
Issued by NWS Green Bay, WI

Home | Current Version | Previous Version | Graphics & Text | Print | Product List | Glossary Off
Versions: 1 2 3 4 5 6 7 8 9 10 11 12 13 14 15 16 17 18 19 20 21 22 23 24 25 26 27 28 29 30 31 32 33 34 35 36 37 38 39 40 41 42 43 44 45 46 47 48 49 50

000
ASUS43 KGRB 232300
RWRGRB

NORTH-CENTRAL AND NORTHEAST WISCONSIN REGIONAL WEATHER ROUNDUP
NATIONAL WEATHER SERVICE GREEN BAY WI
600 PM CDT MON MAY 23 2016

WIZ005-009-010>012-018-019-240000-
NORTH CENTRAL WISCONSIN

CITY           SKY/WX    TMP DP  RH WIND       PRES   REMARKS
IRONWOOD       CLOUDY    70  64  83 SW13      29.74R
MANITOWISH WTR NOT AVBL
ARBOR VITAE    NOT AVBL
EAGLE RIVER    NOT AVBL
LAND O LAKES   NOT AVBL
RHINELANDER    SUNNY     81  41  24 SW20G26   29.83R
PHILLIPS       CLOUDY    78  52  39 S10G16    29.78F
ANTIGO         NOT AVBL
TOMAHAWK       NOT AVBL
MERRILL        CLOUDY   N/A N/A N/A SW14G23   29.83S
$$

WIZ013-073-240000-
NORTHEAST WISCONSIN

CITY           SKY/WX    TMP DP  RH WIND       PRES   REMARKS
IRON MOUNTAIN  SUNNY     83  42  23 S21G29    29.79F
MARINETTE      SUNNY     71  48  43 S12       29.86F
$$

WIZ017-030-035>037-045-240000-
CENTRAL WISCONSIN

CITY           SKY/WX    TMP DP  RH WIND       PRES   REMARKS
MEDFORD        NOT AVBL
WAUSAU         CLOUDY    84  43  23 SW17      29.81S
MOSINEE        NOT AVBL
MARSHFIELD     MOSUNNY   82  47  29 S14G25    29.82S
WISC RAPIDS    CLOUDY    83  40  21 SW15G25   29.84F
STEVENS POINT  NOT AVBL
WAUPACA        NOT AVBL
SHAWANO        CLOUDY    85  42  22 SW9G17    29.84F
CLINTONVILLE   NOT AVBL
WAUTOMA        SUNNY     83  45  26 S12G22    29.85F
$$

WIZ038-039-048-051-240000-
FOX VALLEY

CITY           SKY/WX    TMP DP  RH WIND       PRES   REMARKS
NWS GREEN BAY  SUNNY     80  49  33 SE16      29.86S
APPLETON       MOSUNNY   82  39  21 S15G21    29.85F
OSHKOSH        SUNNY     82  44  26 SW13G21   29.86F
FOND DU LAC    SUNNY     83  45  26 S13       29.87F
$$

WIZ022-050-052-240000-
EAST CENTRAL WISCONSIN

CITY           SKY/WX    TMP DP  RH WIND       PRES   REMARKS
EPHRAIM        NOT AVBL
STURGEON BAY   NOT AVBL
MANITOWOC      NOT AVBL
SHEBOYGAN      SUNNY     71  41  33 S9        29.92S
$$

LMZ563-521-522-541>543-240000-
LAKESHORE

STATION/POSITION TIME  TEMP    WIND        PRES    VSBY  WAVE
                       AIR SEA DIR/SP/G                  HT/PER
                 (UTC) (F)     (DEG/KT/KT) (MB)    (MI)  (FT/S)
SHEBOYGAN LKSHOR 2200   55     170/ 15/ 16 1013.9F
KEWAUNEE LKSHORE 2200   54                 1012.4F
NORTHPORT PIER   2200   64     160/ 10/ 18 1012.2F
N MID LAKE BUOY  2150   51 45  210/ 12/ 14 1012.7F         2/ 3
CHAMBERS ISLAND  2200   71     140/  9/ 17 1011.5F
MENOMINEE LKSHOR 2200   66                 1010.3F
$$



USA.gov is the U.S. government's official web portal to all federal, state and local government web resources and services.